Regional Weather Roundup
Issued by NWS

Home | Current Version | Previous Version | Graphics & Text | Print | Product List | Glossary Off
Versions: 1 2 3 4 5 6 7 8 9 10 11 12 13 14 15 16 17 18 19 20 21 22 23 24 25 26 27 28 29 30 31 32 33 34 35 36 37 38 39 40 41 42 43 44 45 46 47 48 49 50

044
ASUS43 KMPX 241610
RWRMN
WEATHER ROUNDUP FOR MINNESOTA
NATIONAL WEATHER SERVICE TWIN CITIES/CHANHASSEN MN
1100 AM CDT SAT JUN 24 2017


NOTE: "FAIR" INDICATES FEW OR NO CLOUDS BELOW 12,000 FEET WITH NO
SIGNIFICANT WEATHER AND/OR OBSTRUCTIONS TO VISIBILITY. N/A MEANS
CURRENT SKY AND/OR WEATHER CONDITIONS ARE NOT AVAILABLE.

MNZ060>063-068>070-241700-
   Twin Cities Metro

CITY           SKY/WX    TMP DP  RH WIND       PRES   REMARKS
TWIN CITIES    MOSUNNY   64  42  44 W17G23    30.01F
ST PAUL        MOSUNNY   63  42  46 NW15G24   30.01S
CRYSTAL        MOSUNNY   63  40  42 W13       30.00S
BLAINE         PTSUNNY   64  43  45 W16       30.00S
LAKEVILLE      SUNNY     63  45  51 NW10G17   30.02F
EDEN PRAIRIE   SUNNY     64  42  44 W12G22    30.02S
SOUTH ST PAUL  SUNNY     64  41  43 W13G21    30.01S
LAKE ELMO      FAIR      63  43  48 W12G20    30.02S
$$
MNZ001>005-007-008-013>017-022>024-027-028-241700-
   Northwest Minnesota

CITY           SKY/WX    TMP DP  RH WIND       PRES   REMARKS
BEMIDJI        CLOUDY    56  45  65 NW12G17   29.97S
HALLOCK        CLOUDY    54  50  87 NW13      29.98S FOG
ROSEAU         LGT RAIN  52  46  82 W10G17    29.96R
WARROAD        CLOUDY    54  48  82 W6        29.96R
THIEF RVR FALL CLOUDY    54  44  69 W16       30.00R
CROOKSTON      PTSUNNY   55  45  67 NW17G23   30.01R
FOSSTON        PTSUNNY   54  45  71 W13G20    30.00R
DETROIT LAKES  PTSUNNY   52  45  76 NW13G20   30.02S
MOORHEAD       MOSUNNY   57  46  67 NW14G22   30.04S
PARK RAPIDS    PTSUNNY   58  41  53 NW15G22   29.98S
MAHNOMEN       CLOUDY    54  47  78 NW13      30.01R
$$
MNZ006-009>011-018-025>026-241700-
   North Central Minnesota

CITY           SKY/WX    TMP DP  RH WIND       PRES   REMARKS
BAUDETTE       CLOUDY    53  47  79 NW13      29.94R
FLAG ISLAND    CLOUDY    54  46  76 W8        29.92S
INTL FALLS     CLOUDY    58  46  64 W12G21    29.92R
WASKISH        CLOUDY    57  46  67 NW12      29.95R
BIG FORK       PTSUNNY   57  46  67 W6        29.93S
LONGVILLE      CLOUDY    55  45  67 W6        29.96R
GRAND RAPIDS   CLOUDY    57  44  62 W12G18    29.95F
CRANE LAKE     CLOUDY    55  50  82 CALM      29.91S
ORR            LGT RAIN  54  48  82 W7        29.90R
COOK           PTSUNNY   55  46  71 NW9       29.92S
WALKER         CLOUDY    56  45  64 W10       29.96S
$$
MNZ012-019>021-037-241700-
   Northeast Minnesota

CITY           SKY/WX    TMP DP  RH WIND       PRES   REMARKS
DULUTH         CLOUDY    56  46  69 W16       29.91R
ELY            CLOUDY    54  50  87 W12G17    29.89S
HIBBING        CLOUDY    55  47  74 NW10      29.92R
EVELETH        PTSUNNY   58  45  63 NW10      29.92S
DULUTH HARBOR  LGT RAIN  57  54  88 W10       29.92S
TWO HARBORS    CLOUDY    59  52  77 NW6       29.88S
SILVER BAY     CLOUDY    57  52  82 NW5       29.86S
GRAND MARAIS     N/A     48  47  96 W7        29.84R
G MARAIS ARPRT LGT RAIN  55  48  76 N3        29.86R
$$
MNZ029>031-032-039>041-046>048-054>057-064-241700-
   West Central Minnesota

CITY           SKY/WX    TMP DP  RH WIND       PRES   REMARKS
FERGUS FALLS   CLOUDY    54  45  71 NW17      30.02S
WHEATON        MOSUNNY   59  39  47 NW14G21   30.07R
MORRIS         MOSUNNY   63  41  45 NW21      30.03S
ALEXANDRIA     PTSUNNY   57  43  59 NW20G25   30.03S
ELBOW LAKE     PTSUNNY   55  46  72 W18       30.04S
WADENA         PTSUNNY   52  43  71 NW17G24   30.00R
GLENWOOD       MOSUNNY   59  45  58 W13G18    30.03S
APPLETON       SUNNY     59  46  63 W15G21    30.05S
BENSON         CLOUDY    61  46  59 N16G23    30.05F
ORTONVILLE     MOSUNNY   57  45  62 NW16G22   30.06S
MADISON        CLOUDY    63  46  55 NW8       30.06F
WILLMAR        FAIR      54  48  82 W10       30.05F
$$
MNZ033>034-036-042>043-049>051-058-059-241700-
   Central Minnesota

CITY           SKY/WX    TMP DP  RH WIND       PRES   REMARKS
ST CLOUD       CLOUDY    61  42  49 W14       30.00F
SAUK CENTRE    CLOUDY    58  42  55 W15       30.02S
PAYNESVILLE    CLOUDY    59  42  54 W12       30.04S
AITKIN         PTSUNNY   57  45  62 W7        29.94S
PINE RIVER     SUNNY     57  45  62 W12G17    30.00S
BRAINERD       MOSUNNY   59  42  53 W12       29.98S
STAPLES        PTSUNNY   57  41  54 W12G21    29.98F
LONG PRAIRIE   PTSUNNY   55  41  58 SW15G23   30.01S
LITTLE FALLS   PTSUNNY   59  37  44 W13G18    30.00S
LITCHFIELD     LGT RAIN  57  45  62 W13G20    30.05R
BUFFALO        PTSUNNY   61  41  47 W17G24    30.04R
MAPLE LAKE     PTSUNNY   62  45  53 W12G21    30.03S
HUTCHINSON     LGT RAIN  55  46  71 W17G23    30.07R
$$
MNZ037-044-045-052-053-241700-
   East Central Minnesota

CITY           SKY/WX    TMP DP  RH WIND       PRES   REMARKS
PRINCETON      MOSUNNY   64  43  45 W13G21    29.99S
MORA           MOSUNNY   59  41  51 W12       29.99S
CAMBRIDGE      MOSUNNY   64  45  48 W9G16     29.97S
RUSH CITY      SUNNY     63  43  48 W10G16    29.98S
MOOSE LAKE     CLOUDY    59  43  55 W9        29.93R
HINCKLEY       PTSUNNY   61  45  55 W12G22    29.96S
CLOQUET        CLOUDY    57  45  62 W9        29.93S
MCGREGOR       CLOUDY    57  45  62 W8        29.95S
$$
MNZ071>073-080-081-089-090-097-098-241700-
   Southwest Minnesota

CITY           SKY/WX    TMP DP  RH WIND       PRES   REMARKS
MONTEVIDEO     PTSUNNY   59  46  63 NW6       30.06F
GRANITE FALLS  CLOUDY    59  45  59 NW5       30.08S
CANBY          CLOUDY    62  46  55 NW6       30.07S
MARSHALL       CLOUDY    61  44  53 W15       30.06F
REDWOOD FALLS  PTSUNNY   62  41  46 NW7       30.06S
OLIVIA         PTSUNNY   59  43  55 NW12      30.06S
PIPESTONE      MOSUNNY   66  39  37 NW24G36   30.08S
WINDOM         SUNNY     64  39  39 W14G22    30.08F
WORTHINGTON    MOSUNNY   65  45  48 W17G25    30.09F
JACKSON        MOSUNNY   63  39  42 W10G17    30.10S
TRACY          CLOUDY    62  43  49 W8        30.07F
SLAYTON        PTSUNNY   62  40  45 W14G21    30.09F HAZE
$$
MNZ065>067-074>077-082>085-091>093-241700-
   South Central Minnesota

CITY           SKY/WX    TMP DP  RH WIND       PRES   REMARKS
MANKATO        SUNNY     62  41  46 NW16      30.06F
NEW ULM        MOSUNNY   63  39  42 NW14      30.06S
ST JAMES       SUNNY     64  41  42 W10       30.08S
FAIRMONT       SUNNY     64  42  44 W16G22    30.09S
GLENCOE        CLOUDY    60  45  58 W18       30.05R
FARIBAULT      SUNNY     63  45  51 W13G18    30.05S
OWATONNA       SUNNY     63  43  48 W18       30.06S
WASECA         SUNNY     63  43  48 NW12G22   30.08S
ALBERT LEA     SUNNY     63  41  45 NW10G16   30.08R
$$
MNZ078>079-086>088-094>096-241700-
   Southeast Minnesota

CITY           SKY/WX    TMP DP  RH WIND       PRES   REMARKS
ROCHESTER      SUNNY     62  45  53 NW21      30.05S
RED WING       MOSUNNY   64  37  36 W14       30.01R
STANTON        MOSUNNY   63  44  49 W18       30.02S
DODGE CENTER   SUNNY     61  43  51 W17G24    30.06R
WINONA         MOSUNNY   63  45  51 NW12G21   30.02R
AUSTIN         SUNNY     61  41  48 NW20G26   30.07R
PRESTON        MOSUNNY   60  42  52 NW14G26   30.05R
$$
ABBREVIATIONS USED IN REMARKS
   TC - TEMPERATURES IN CELSIUS
  WCI - WIND CHILL INDEX
   HX - HEAT INDEX
  VSB - VISIBILITY
$$




USA.gov is the U.S. government's official web portal to all federal, state and local government web resources and services.